TimeHST,TemperatureF,Dew PointF,Humidity,Sea Level PressureIn,VisibilityMPH,Wind Direction,Wind SpeedMPH,Gust SpeedMPH,PrecipitationIn,Events,Conditions,WindDirDegrees,DateUTC
12:55 AM,65.8,62.1,88,30.04,10.0,Calm,Calm,-,N/A,,Clear,0,2012-11-20 10:55:00
1:55 AM,68.4,62.6,82,30.03,10.0,Calm,Calm,-,N/A,,Scattered Clouds,0,2012-11-20 11:55:00
2:55 AM,67.5,61.5,81,30.02,10.0,South,4.6,-,N/A,,Clear,190,2012-11-20 12:55:00
3:55 AM,67.6,61.7,81,30.01,10.0,Calm,Calm,-,N/A,,Clear,0,2012-11-20 13:55:00
4:55 AM,67.8,62.1,82,30.01,10.0,Calm,Calm,-,N/A,,Partly Cloudy,0,2012-11-20 14:55:00
5:55 AM,66.0,61.9,86,30.02,10.0,Calm,Calm,-,N/A,,Partly Cloudy,0,2012-11-20 15:55:00
6:55 AM,66.9,62.8,87,30.02,10.0,Calm,Calm,-,N/A,,Clear,0,2012-11-20 16:55:00
7:55 AM,67.6,63.3,86,30.04,10.0,Calm,Calm,-,N/A,,Clear,0,2012-11-20 17:55:00
8:55 AM,71.4,64.8,79,30.06,10.0,Calm,Calm,-,N/A,,Partly Cloudy,0,2012-11-20 18:55:00
9:43 AM,73.4,64.4,73,30.06,10.0,East,6.9,-,N/A,,Mostly Cloudy,90,2012-11-20 19:43:00
9:47 AM,73.4,64.4,73,30.06,10.0,East,5.8,-,N/A,,Scattered Clouds,80,2012-11-20 19:47:00
9:55 AM,74.1,64.4,72,30.06,10.0,East,5.8,-,N/A,,Scattered Clouds,100,2012-11-20 19:55:00
10:19 AM,75.2,64.4,69,30.05,10.0,East,6.9,-,N/A,,Mostly Cloudy,80,2012-11-20 20:19:00
10:32 AM,75.2,64.4,69,30.05,10.0,ESE,10.4,17.3,N/A,,Mostly Cloudy,110,2012-11-20 20:32:00
10:55 AM,74.8,64.2,69,30.05,10.0,East,6.9,-,N/A,,Mostly Cloudy,80,2012-11-20 20:55:00
11:35 AM,73.4,64.4,73,30.04,10.0,ESE,4.6,-,N/A,,Overcast,110,2012-11-20 21:35:00
11:45 AM,73.4,64.4,73,30.03,10.0,Variable,4.6,-,N/A,,Overcast,0,2012-11-20 21:45:00
11:55 AM,73.9,63.9,71,30.03,10.0,Variable,4.6,-,N/A,,Overcast,0,2012-11-20 21:55:00
12:55 PM,75.4,63.1,66,30.00,10.0,East,9.2,-,N/A,,Scattered Clouds,100,2012-11-20 22:55:00
1:55 PM,75.7,61.5,61,29.97,10.0,East,13.8,-,0.26,,Clear,80,2012-11-20 23:55:00
2:55 PM,74.5,60.8,62,29.96,10.0,East,12.7,-,N/A,,Clear,100,2012-11-21 00:55:00
3:55 PM,73.8,60.3,63,29.96,10.0,East,8.1,-,N/A,,Clear,100,2012-11-21 01:55:00
4:55 PM,72.7,59.9,64,29.96,10.0,Variable,5.8,-,N/A,,Clear,0,2012-11-21 02:55:00
5:55 PM,71.1,60.1,68,29.98,10.0,East,5.8,-,N/A,,Clear,100,2012-11-21 03:55:00
6:55 PM,70.3,60.6,71,29.99,10.0,Calm,Calm,-,N/A,,Clear,0,2012-11-21 04:55:00
7:55 PM,68.5,60.6,76,30.00,10.0,Calm,Calm,-,N/A,,Clear,0,2012-11-21 05:55:00
8:55 PM,68.4,61.3,78,30.00,10.0,Calm,Calm,-,N/A,,Clear,0,2012-11-21 06:55:00
9:55 PM,67.1,60.8,80,30.00,10.0,Calm,Calm,-,N/A,,Clear,0,2012-11-21 07:55:00
10:55 PM,65.3,61.0,86,29.99,10.0,Calm,Calm,-,N/A,,Clear,0,2012-11-21 08:55:00
11:55 PM,64.0,60.8,89,29.99,10.0,NW,4.6,-,N/A,,Clear,320,2012-11-21 09:55:00